Cloud_Cover
0 5 0 25 100 100 100 100 100 100 100 100 100 100 100 100 100 100 100 100 100 100 100 94 48 26 5 5 5 3 2 5 4 0 0 0 0 0 0 0 0 0 0
0 0 17 21 69 100 100 100 100 100 100 100 100 100 100 100 100 100 100 100 100 100 100 82 63 5 5 5 4 4 0 0 0 0 0 0 0 0 0 0 0 0 0
1 33 66 96 100 100 100 100 100 100 100 100 100 100 100 100 100 100 100 100 100 100 100 85 5 5 0 0 0 0 0 0 0 0 0 0 0 0 0 0 0 0 0
92 75 100 100 100 100 100 100 100 100 100 100 100 100 100 100 81 100 100 100 100 100 88 17 5 0 0 0 0 0 0 0 0 0 0 0 0 0 0 0 0 0 0
100 100 100 100 100 100 100 100 100 100 100 100 100 100 100 100 100 100 100 100 100 100 100 84 5 0 0 0 0 0 0 0 0 0 0 0 0 0 0 0 0 0 0
100 100 100 100 100 100 100 100 100 100 100 100 100 100 100 100 96 94 100 100 100 100 98 5 5 4 2 0 0 0 0 0 0 0 0 0 0 0 0 0 0 0 2
100 100 100 100 100 100 100 100 100 100 100 100 100 100 100 100 100 39 100 100 100 100 57 10 5 5 5 0 0 0 0 0 0 0 0 0 0 0 0 0 0 0 1
100 100 100 100 100 100 100 100 100 100 100 100 100 100 100 100 100 100 100 100 100 75 37 5 5 5 5 0 0 0 0 0 0 0 0 0 0 0 0 0 0 0 0
100 100 100 100 100 100 100 100 100 100 100 100 100 100 100 100 100 100 100 100 100 90 88 43 6 5 0 0 0 0 0 0 0 0 0 0 0 0 0 0 0 0 0
100 100 100 100 100 100 100 100 100 100 100 100 100 100 100 100 100 100 100 100 84 8 46 14 4 0 0 0 0 0 0 0 0 0 0 0 0 0 0 0 0 0 0
100 100 100 100 100 100 100 100 100 100 100 100 100 100 100 100 100 100 100 89 63 5 5 5 2 2 0 0 0 0 0 0 0 0 0 0 0 0 0 0 0 0 3
100 100 100 100 100 100 100 100 100 100 100 100 100 100 100 100 100 100 100 61 86 87 5 5 2 0 0 0 0 0 0 0 0 0 0 0 0 0 0 0 0 0 0
100 100 100 100 100 100 100 100 100 100 100 100 100 100 100 100 100 100 77 56 5 5 3 0 1 5 5 0 0 0 0 0 0 0 0 0 0 0 0 0 0 0 5
100 100 100 100 100 100 100 100 100 100 100 100 100 100 100 100 100 60 67 77 5 2 2 1 5 1 0 0 0 0 0 0 0 0 0 0 5 1 0 0 0 0 16
100 100 100 100 100 100 100 100 100 100 100 100 100 100 100 78 37 5 5 5 5 5 5 4 0 0 0 0 0 0 0 0 0 0 0 4 5 5 3 0 0 0 1
100 100 100 100 100 100 100 100 100 100 100 100 100 100 36 5 5 5 5 5 5 5 5 0 0 0 0 0 0 0 0 0 0 0 0 3 5 5 5 1 0 0 14
100 100 100 100 100 100 100 100 100 100 100 100 90 59 5 50 5 5 1 0 3 5 5 4 0 0 0 0 0 0 0 0 0 0 0 0 5 5 5 0 0 0 54
100 100 100 100 100 100 100 100 100 100 100 90 100 99 72 36 21 7 5 39 6 4 0 0 0 0 0 0 0 0 0 0 0 0 0 2 3 4 5 0 0 0 42
100 100 100 100 93 100 100 100 52 52 50 100 64 86 48 57 36 69 8 3 5 0 0 0 0 0 0 0 0 0 0 0 0 0 0 3 5 5 5 0 0 0 94
100 100 92 64 100 100 100 100 87 8 14 5 30 22 19 8 73 17 5 5 1 0 0 0 0 0 0 0 0 0 0 0 0 0 0 4 5 3 2 0 0 0 1
100 100 100 100 100 100 100 100 100 98 100 95 55 55 41 36 7 46 10 0 0 0 0 0 0 0 0 0 0 0 0 0 0 5 0 5 5 0 0 0 0 0 100
100 100 100 100 100 100 81 90 33 70 92 88 69 98 93 62 32 2 0 0 0 0 0 0 0 0 0 0 0 0 0 0 4 4 1 5 5 0 0 0 0 4 100
100 100 100 100 99 86 60 30 52 53 23 61 76 42 13 5 5 0 0 0 0 0 0 0 0 0 0 0 0 0 0 5 5 5 5 5 5 2 1 0 0 3 98
100 78 49 45 22 44 59 63 38 60 95 92 54 34 62 5 0 0 0 0 0 0 0 0 0 0 0 0 0 0 4 5 5 5 5 5 5 1 0 0 0 0 92
46 74 100 99 100 100 100 100 100 100 100 100 73 16 3 5 0 0 0 0 0 0 0 0 0 0 0 0 0 0 5 5 5 5 5 5 5 0 0 0 0 0 25
100 100 46 70 100 100 100 100 100 100 100 74 8 5 9 0 0 0 0 0 0 0 0 0 0 1 1 0 1 5 5 5 5 5 5 5 0 0 0 0 0 5 5